• In Germany
  • List of Countries
  • For 7 days
  • Water Temperature
  • Satellite Maps
  • Weather Map
  • Weather Widgets
  • user-avatar
    Login

    Hourly Weather Biskira

    Today, 26 September, Tuesday

    Time Temperature Precipitation Wind Pressure Humidity
    00:00 +29°C° 0 mm 1 mps 753 mmHg 38%
    01:00 +28°C° 0 mm 1 mps 753 mmHg 40%
    02:00 +28°C° 0 mm 1 mps 753 mmHg 41%
    03:00 +27°C° 0 mm 2 mps 753 mmHg 43%
    04:00 +27°C° 0 mm 2 mps 753 mmHg 46%
    05:00 +27°C° 0 mm 2 mps 753 mmHg 48%
    06:00 +26°C° 0 mm 3 mps 753 mmHg 51%
    07:00 +27°C° 0 mm 3 mps 754 mmHg 49%
    08:00 +28°C° 0 mm 3 mps 754 mmHg 46%
    09:00 +29°C° 0 mm 4 mps 754 mmHg 43%
    10:00 +30°C° 0 mm 3 mps 754 mmHg 40%
    11:00 +31°C° 0 mm 3 mps 754 mmHg 38%
    12:00 +33°C° 0 mm 3 mps 753 mmHg 35%
    13:00 +33°C° 0 mm 3 mps 753 mmHg 34%
    14:00 +32°C° 0 mm 2 mps 753 mmHg 32%
    15:00 +34°C° 0 mm 2 mps 752 mmHg 31%
    16:00 +32°C° 0 mm 2 mps 752 mmHg 32%
    17:00 +32°C° 0 mm 2 mps 752 mmHg 32%
    18:00 +32°C° 0 mm 2 mps 752 mmHg 33%
    19:00 +31°C° 0 mm 1 mps 753 mmHg 34%
    20:00 +31°C° 0 mm 1 mps 753 mmHg 36%
    21:00 +30°C° 0 mm 1 mps 754 mmHg 37%
    22:00 +30°C° 0 mm 1 mps 754 mmHg 38%
    23:00 +29°C° 0 mm 1 mps 754 mmHg 39%

    Tomorrow, 27 September, Wednesday

    Time Temperature Precipitation Wind Pressure Humidity
    00:00 +28°C° 0 mm 1 mps 754 mmHg 40%
    01:00 +28°C° 0 mm 1 mps 753 mmHg 42%
    02:00 +25°C° 0 mm 0 mps 753 mmHg 43%
    03:00 +25°C° 0 mm 0 mps 753 mmHg 44%
    04:00 +27°C° 0 mm 1 mps 753 mmHg 44%
    05:00 +27°C° 0 mm 1 mps 754 mmHg 45%
    06:00 +27°C° 0 mm 1 mps 754 mmHg 46%
    07:00 +28°C° 0 mm 1 mps 754 mmHg 43%
    08:00 +29°C° 0 mm 2 mps 754 mmHg 40%
    09:00 +30°C° 0 mm 2 mps 755 mmHg 37%
    10:00 +31°C° 0 mm 2 mps 754 mmHg 35%
    11:00 +32°C° 0 mm 2 mps 754 mmHg 33%
    12:00 +34°C° 0 mm 2 mps 754 mmHg 30%
    13:00 +34°C° 0 mm 2 mps 754 mmHg 29%
    14:00 +34°C° 0 mm 2 mps 753 mmHg 27%
    15:00 +35°C° 0 mm 2 mps 753 mmHg 26%
    16:00 +34°C° 0 mm 2 mps 753 mmHg 26%
    17:00 +34°C° 0 mm 2 mps 753 mmHg 27%
    18:00 +34°C° 0 mm 2 mps 753 mmHg 27%
    19:00 +32°C° 0 mm 2 mps 754 mmHg 29%
    20:00 +31°C° 0 mm 2 mps 755 mmHg 31%
    21:00 +31°C° 0 mm 1 mps 755 mmHg 33%
    22:00 +30°C° 0 mm 2 mps 755 mmHg 36%
    23:00 +29°C° 0 mm 2 mps 755 mmHg 39%

    Day after tomorrow, 28 September, Thursday

    Time Temperature Precipitation Wind Pressure Humidity
    00:00 +29°C° 0 mm 2 mps 755 mmHg 42%
    01:00 +28°C° 0 mm 2 mps 755 mmHg 45%
    02:00 +28°C° 0 mm 3 mps 755 mmHg 47%
    03:00 +27°C° 0 mm 3 mps 755 mmHg 50%
    04:00 +27°C° 0 mm 3 mps 755 mmHg 54%
    05:00 +26°C° 0 mm 2 mps 756 mmHg 58%
    06:00 +26°C° 0 mm 2 mps 756 mmHg 62%
    07:00 +27°C° 0 mm 2 mps 756 mmHg 58%
    08:00 +28°C° 0 mm 2 mps 756 mmHg 54%
    09:00 +28°C° 0 mm 2 mps 757 mmHg 50%
    10:00 +29°C° 0 mm 2 mps 756 mmHg 46%
    11:00 +30°C° 0 mm 2 mps 756 mmHg 42%
    12:00 +31°C° 0 mm 2 mps 756 mmHg 38%
    13:00 +31°C° 0 mm 2 mps 755 mmHg 36%
    14:00 +32°C° 0 mm 2 mps 755 mmHg 34%
    15:00 +32°C° 0 mm 2 mps 755 mmHg 32%
    16:00 +32°C° 0 mm 2 mps 755 mmHg 32%
    17:00 +32°C° 0 mm 2 mps 755 mmHg 32%
    18:00 +31°C° 0 mm 1 mps 755 mmHg 32%
    19:00 +31°C° 0 mm 1 mps 755 mmHg 32%
    20:00 +31°C° 0 mm 1 mps 756 mmHg 33%
    21:00 +30°C° 0 mm 1 mps 756 mmHg 33%
    22:00 +30°C° 0 mm 1 mps 756 mmHg 33%
    23:00 +30°C° 0 mm 1 mps 756 mmHg 34%

    29 September, Friday

    Time Temperature Precipitation Wind Pressure Humidity
    00:00 +29°C° 0 mm 1 mps 756 mmHg 34%
    01:00 +29°C° 0 mm 2 mps 755 mmHg 37%
    02:00 +28°C° 0 mm 2 mps 755 mmHg 41%
    03:00 +28°C° 0 mm 3 mps 755 mmHg 44%
    04:00 +27°C° 0 mm 3 mps 755 mmHg 50%
    05:00 +26°C° 0 mm 4 mps 755 mmHg 57%
    06:00 +26°C° 0 mm 4 mps 756 mmHg 63%
    07:00 +26°C° 0 mm 4 mps 756 mmHg 60%
    08:00 +27°C° 0 mm 4 mps 756 mmHg 57%
    09:00 +28°C° 0 mm 4 mps 756 mmHg 54%
    10:00 +28°C° 0 mm 4 mps 756 mmHg 50%
    11:00 +29°C° 0 mm 3 mps 755 mmHg 47%
    12:00 +30°C° 0 mm 3 mps 755 mmHg 44%
    13:00 +30°C° 0.1 mm 2 mps 755 mmHg 42%
    14:00 +31°C° 0.1 mm 2 mps 754 mmHg 40%
    15:00 +31°C° 0.1 mm 1 mps 754 mmHg 39%
    16:00 +31°C° 0.1 mm 1 mps 754 mmHg 40%
    17:00 +31°C° 0.1 mm 1 mps 754 mmHg 40%
    18:00 +30°C° 0.1 mm 1 mps 754 mmHg 41%
    19:00 +30°C° 0.1 mm 1 mps 754 mmHg 43%
    20:00 +29°C° 0.1 mm 1 mps 754 mmHg 45%
    21:00 +29°C° 0.1 mm 1 mps 754 mmHg 47%
    22:00 +28°C° 0 mm 1 mps 754 mmHg 49%
    23:00 +28°C° 0 mm 2 mps 754 mmHg 51%

    30 September, Saturday

    Time Temperature Precipitation Wind Pressure Humidity
    00:00 +27°C° 0 mm 2 mps 754 mmHg 52%
    01:00 +27°C° 0 mm 2 mps 754 mmHg 54%
    02:00 +27°C° 0 mm 1 mps 754 mmHg 56%
    03:00 +26°C° 0 mm 1 mps 753 mmHg 57%
    04:00 +26°C° 0 mm 1 mps 754 mmHg 58%
    05:00 +26°C° 0 mm 2 mps 754 mmHg 58%
    06:00 +26°C° 0 mm 2 mps 754 mmHg 59%
    07:00 +26°C° 0 mm 2 mps 754 mmHg 56%
    08:00 +27°C° 0 mm 3 mps 754 mmHg 52%
    09:00 +28°C° 0 mm 4 mps 754 mmHg 49%
    10:00 +29°C° 0 mm 4 mps 754 mmHg 47%
    11:00 +29°C° 0 mm 3 mps 753 mmHg 45%
    12:00 +30°C° 0 mm 3 mps 753 mmHg 43%
    13:00 +30°C° 0.1 mm 2 mps 752 mmHg 42%
    14:00 +31°C° 0.1 mm 2 mps 752 mmHg 40%
    15:00 +31°C° 0.1 mm 1 mps 751 mmHg 39%
    16:00 +31°C° 0.1 mm 1 mps 752 mmHg 39%
    17:00 +30°C° 0.1 mm 1 mps 752 mmHg 39%
    18:00 +30°C° 0.1 mm 2 mps 752 mmHg 40%
    19:00 +30°C° 0 mm 2 mps 752 mmHg 41%
    20:00 +29°C° 0 mm 2 mps 752 mmHg 42%
    21:00 +29°C° 0 mm 2 mps 753 mmHg 44%
    22:00 +29°C° 0 mm 2 mps 753 mmHg 45%
    23:00 +28°C° 0 mm 2 mps 752 mmHg 47%

    1 October, Sunday

    Time Temperature Precipitation Wind Pressure Humidity
    00:00 +28°C° 0 mm 2 mps 752 mmHg 48%
    01:00 +27°C° 0 mm 2 mps 752 mmHg 49%
    02:00 +27°C° 0 mm 2 mps 752 mmHg 50%
    03:00 +27°C° 0 mm 2 mps 752 mmHg 52%
    04:00 +26°C° 0 mm 3 mps 752 mmHg 52%
    05:00 +26°C° 0 mm 4 mps 753 mmHg 53%
    06:00 +26°C° 0 mm 4 mps 753 mmHg 54%
    07:00 +26°C° 0 mm 5 mps 753 mmHg 52%
    08:00 +27°C° 0 mm 5 mps 753 mmHg 50%
    09:00 +27°C° 0 mm 5 mps 753 mmHg 48%
    10:00 +28°C° 0.1 mm 5 mps 753 mmHg 46%
    11:00 +29°C° 0.1 mm 5 mps 753 mmHg 44%
    12:00 +29°C° 0.1 mm 4 mps 752 mmHg 42%
    13:00 +30°C° 0.1 mm 4 mps 752 mmHg 41%
    14:00 +30°C° 0.1 mm 4 mps 751 mmHg 40%
    15:00 +30°C° 0.1 mm 4 mps 751 mmHg 39%
    16:00 +30°C° 0.2 mm 3 mps 751 mmHg 40%
    17:00 +29°C° 0.2 mm 3 mps 751 mmHg 42%
    18:00 +29°C° 0.2 mm 3 mps 752 mmHg 43%
    19:00 +29°C° 0.4 mm 3 mps 752 mmHg 44%
    20:00 +28°C° 0.4 mm 3 mps 752 mmHg 45%
    21:00 +28°C° 0.4 mm 3 mps 752 mmHg 46%
    22:00 +28°C° 0.3 mm 3 mps 752 mmHg 48%
    23:00 +27°C° 0.3 mm 3 mps 752 mmHg 49%
    Show more